RYR18KR EGPH-LBSF

Flight info

Callsign RYR18KR
Flight time 3h 6m
Altitude 37000
Route TLA Y96 OTBUN DCT ERKIT N110 DOLAS DCT NAVPI DCT TACHA DCT GISEB DCT DIXAT DCT TIVUN DCT ESAMA DCT OSBIT DCT BOREP DCT ENITA DCT ETVIS DCT BUDWA DCT BUDEX DCT GIMBO DCT STEIN DCT BABIT DCT RAVAK DCT NISVA
Aircraft B738/M-SDE2E3FGHIRWXY/LB1

Departure

Time 2026-04-22 14:31
Airport Edinburgh Airport (EGPH)

Arrival

Time 2026-04-22 17:38
Airport Sofia Airport (LBSF)
Time Latitude Longitude Altitude Speed Heading
2026-04-22 14:03 55.94802 -3.36643 111 ft 0 kts 88°
2026-04-22 14:23 55.94802 -3.36658 111 ft 3 kts 88°
2026-04-22 14:23 55.94802 -3.36694 111 ft 3 kts 91°
2026-04-22 14:24 55.94802 -3.36725 111 ft 2 kts 89°
2026-04-22 14:24 55.94800 -3.36756 111 ft 3 kts 60°
2026-04-22 14:24 55.94788 -3.36775 110 ft 3 kts 12°
2026-04-22 14:24 55.94771 -3.36778 110 ft 1 kts 359°
2026-04-22 14:25 55.94769 -3.36778 110 ft 3 kts 359°
2026-04-22 14:27 55.94779 -3.36779 109 ft 3 kts 359°
2026-04-22 14:27 55.94813 -3.36780 110 ft 7 kts 359°
2026-04-22 14:27 55.94871 -3.36784 111 ft 10 kts 351°
2026-04-22 14:28 55.94929 -3.36867 111 ft 12 kts 282°
2026-04-22 14:28 55.94885 -3.37018 111 ft 15 kts 239°
2026-04-22 14:28 55.94825 -3.37199 111 ft 19 kts 239°
2026-04-22 14:28 55.94753 -3.37413 111 ft 22 kts 238°
2026-04-22 14:29 55.94669 -3.37656 112 ft 25 kts 238°
2026-04-22 14:29 55.94571 -3.37947 112 ft 29 kts 238°
2026-04-22 14:29 55.94464 -3.38265 110 ft 29 kts 238°
2026-04-22 14:29 55.94362 -3.38563 112 ft 28 kts 239°
2026-04-22 14:30 55.94282 -3.38806 115 ft 15 kts 252°
2026-04-22 14:30 55.94338 -3.38920 114 ft 13 kts 328°
2026-04-22 14:30 55.94420 -3.38953 111 ft 13 kts 46°
2026-04-22 14:30 55.94487 -3.38764 113 ft 38 kts 58°
2026-04-22 14:31 55.94750 -3.37988 116 ft 105 kts 58°
2026-04-22 14:31 55.95222 -3.36593 204 ft 148 kts 59°
2026-04-22 14:31 55.95745 -3.35013 932 ft 150 kts 58°
2026-04-22 14:31 55.96450 -3.33591 1632 ft 162 kts 44°
2026-04-22 14:32 55.97292 -3.32307 2514 ft 156 kts 43°
2026-04-22 14:32 55.98131 -3.30977 3177 ft 165 kts 47°
2026-04-22 14:32 55.99003 -3.29542 3704 ft 182 kts 48°
2026-04-22 14:32 56.00010 -3.27882 3939 ft 210 kts 46°
2026-04-22 14:33 56.01149 -3.26021 4167 ft 232 kts 46°
2026-04-22 14:33 56.02398 -3.23992 4384 ft 254 kts 46°
2026-04-22 14:33 56.03739 -3.21826 4941 ft 264 kts 45°
2026-04-22 14:33 56.04940 -3.19373 5668 ft 261 kts 67°
2026-04-22 14:34 56.05377 -3.16301 6519 ft 257 kts 92°
2026-04-22 14:34 56.04990 -3.13198 7177 ft 260 kts 119°
2026-04-22 14:34 56.03854 -3.10743 8003 ft 257 kts 142°
2026-04-22 14:34 56.02313 -3.09056 8742 ft 262 kts 151°
2026-04-22 14:35 56.00666 -3.07558 9432 ft 268 kts 153°
2026-04-22 14:35 55.98986 -3.06080 10200 ft 270 kts 153°
2026-04-22 14:35 55.97291 -3.04592 10931 ft 273 kts 153°
2026-04-22 14:35 55.95577 -3.03081 11622 ft 275 kts 153°
2026-04-22 14:36 55.93853 -3.01554 12304 ft 279 kts 153°
2026-04-22 14:36 55.92110 -3.00001 13024 ft 281 kts 153°
2026-04-22 14:36 55.90346 -2.98425 13729 ft 285 kts 153°
2026-04-22 14:36 55.88569 -2.96834 14457 ft 287 kts 154°
2026-04-22 14:37 55.86765 -2.95219 14934 ft 297 kts 154°
2026-04-22 14:37 55.84847 -2.93500 15044 ft 319 kts 153°
2026-04-22 14:37 55.82811 -2.91677 15224 ft 337 kts 154°
2026-04-22 14:37 55.80652 -2.89745 15355 ft 356 kts 154°
2026-04-22 14:38 55.78392 -2.87713 15567 ft 370 kts 152°
2026-04-22 14:38 55.76239 -2.85106 15957 ft 380 kts 140°
2026-04-22 14:38 55.74372 -2.81727 16484 ft 385 kts 133°
2026-04-22 14:38 55.72598 -2.78146 17100 ft 388 kts 133°
2026-04-22 14:39 55.70813 -2.74535 17596 ft 392 kts 133°
2026-04-22 14:39 55.69024 -2.70930 18139 ft 396 kts 133°
2026-04-22 14:39 55.67196 -2.67264 18684 ft 399 kts 133°
2026-04-22 14:40 55.64081 -2.61058 19428 ft 406 kts 134°
2026-04-22 14:40 55.61568 -2.56078 19957 ft 412 kts 134°
2026-04-22 14:40 55.59688 -2.52361 20912 ft 399 kts 134°
2026-04-22 14:40 55.57857 -2.48744 21776 ft 394 kts 134°
2026-04-22 14:41 55.56007 -2.45102 22132 ft 401 kts 134°
2026-04-22 14:41 55.54123 -2.41404 22450 ft 409 kts 134°
2026-04-22 14:41 55.52211 -2.37657 22908 ft 412 kts 134°
2026-04-22 14:41 55.50287 -2.33891 23343 ft 416 kts 134°
2026-04-22 14:42 55.48338 -2.30082 23738 ft 421 kts 134°
2026-04-22 14:42 55.46370 -2.26239 24125 ft 425 kts 134°
2026-04-22 14:42 55.44381 -2.22360 24499 ft 427 kts 134°
2026-04-22 14:42 55.42383 -2.18470 24886 ft 430 kts 134°
2026-04-22 14:43 55.40368 -2.14554 25234 ft 433 kts 134°
2026-04-22 14:43 55.38336 -2.10612 25571 ft 436 kts 134°
2026-04-22 14:43 55.36288 -2.06646 25901 ft 439 kts 134°
2026-04-22 14:43 55.34226 -2.02659 26240 ft 442 kts 134°
2026-04-22 14:44 55.32148 -1.98649 26563 ft 445 kts 134°
2026-04-22 14:44 55.30054 -1.94613 26879 ft 449 kts 134°
2026-04-22 14:44 55.27945 -1.90556 27213 ft 451 kts 134°
2026-04-22 14:44 55.25821 -1.86477 27519 ft 454 kts 134°
2026-04-22 14:45 55.23682 -1.82376 27821 ft 457 kts 134°
2026-04-22 14:45 55.21529 -1.78255 28112 ft 460 kts 134°
2026-04-22 14:45 55.19390 -1.74169 28433 ft 462 kts 134°
2026-04-22 14:45 55.17210 -1.70010 28732 ft 465 kts 134°
2026-04-22 14:46 55.15016 -1.65832 29016 ft 468 kts 134°
2026-04-22 14:46 55.12811 -1.61641 29289 ft 470 kts 134°
2026-04-22 14:46 55.10589 -1.57426 29571 ft 473 kts 134°
2026-04-22 14:46 55.08357 -1.53198 29843 ft 475 kts 134°
2026-04-22 14:47 55.06106 -1.48942 30102 ft 478 kts 134°
2026-04-22 14:47 55.03847 -1.44680 30361 ft 480 kts 134°
2026-04-22 14:47 55.01577 -1.40403 30625 ft 481 kts 134°
2026-04-22 14:47 54.99307 -1.36133 30956 ft 480 kts 134°
2026-04-22 14:48 54.97046 -1.31888 31420 ft 475 kts 134°
2026-04-22 14:48 54.94813 -1.27700 31852 ft 472 kts 134°
2026-04-22 14:48 54.92580 -1.23523 32206 ft 470 kts 134°
2026-04-22 14:48 54.90350 -1.19360 32494 ft 469 kts 134°
2026-04-22 14:49 54.88126 -1.15216 32799 ft 468 kts 134°
2026-04-22 14:49 54.85911 -1.11093 33169 ft 466 kts 134°
2026-04-22 14:49 54.83707 -1.07000 33547 ft 463 kts 134°
2026-04-22 14:49 54.81508 -1.02922 33907 ft 461 kts 134°
2026-04-22 14:50 54.79322 -0.98875 34212 ft 460 kts 134°
2026-04-22 14:50 54.77139 -0.94841 34496 ft 459 kts 134°
2026-04-22 14:50 54.74956 -0.90814 34740 ft 458 kts 134°
2026-04-22 14:50 54.72782 -0.86811 34958 ft 457 kts 134°
2026-04-22 14:51 54.70601 -0.82801 35162 ft 457 kts 134°
2026-04-22 14:51 54.68428 -0.78812 35372 ft 456 kts 134°
2026-04-22 14:51 54.66257 -0.74834 35503 ft 456 kts 134°
2026-04-22 14:51 54.64069 -0.70831 35493 ft 458 kts 134°
2026-04-22 14:52 54.59697 -0.62852 35501 ft 457 kts 134°
2026-04-22 14:52 54.55333 -0.54914 35502 ft 455 kts 134°
2026-04-22 14:53 54.50979 -0.47022 35502 ft 454 kts 134°
2026-04-22 14:53 54.46662 -0.39222 35510 ft 455 kts 134°
2026-04-22 14:54 54.42269 -0.31311 35502 ft 459 kts 134°
2026-04-22 14:54 54.37845 -0.23371 35496 ft 461 kts 134°
2026-04-22 14:55 54.33421 -0.15455 35481 ft 457 kts 134°
2026-04-22 14:55 54.29037 -0.07638 35487 ft 453 kts 134°
2026-04-22 14:56 54.24677 0.00111 35490 ft 452 kts 134°
2026-04-22 14:56 54.20287 0.07886 35500 ft 457 kts 134°
2026-04-22 14:57 54.15848 0.15724 35492 ft 461 kts 134°
2026-04-22 14:57 54.11379 0.23589 35490 ft 463 kts 134°
2026-04-22 14:58 54.06884 0.31473 35477 ft 463 kts 134°
2026-04-22 14:58 54.02413 0.39289 35469 ft 458 kts 134°
2026-04-22 14:59 53.97987 0.47002 35475 ft 454 kts 134°
2026-04-22 14:59 53.93588 0.54643 35481 ft 452 kts 134°
2026-04-22 15:00 53.89936 0.60967 35481 ft 452 kts 134°
2026-04-22 15:00 53.85523 0.68588 35482 ft 453 kts 134°
2026-04-22 15:01 53.81093 0.76214 35485 ft 457 kts 134°
2026-04-22 15:01 53.76610 0.83906 35480 ft 461 kts 134°
2026-04-22 15:02 53.72086 0.91642 35479 ft 464 kts 134°
2026-04-22 15:02 53.67545 0.99382 35465 ft 463 kts 134°
2026-04-22 15:03 53.63027 1.07057 35457 ft 459 kts 134°
2026-04-22 15:03 53.58549 1.14641 35455 ft 454 kts 134°
2026-04-22 15:04 53.54117 1.22122 35459 ft 450 kts 134°
2026-04-22 15:04 53.49698 1.29561 35469 ft 449 kts 134°
2026-04-22 15:05 53.45271 1.36988 35464 ft 450 kts 134°
2026-04-22 15:05 53.40842 1.44396 35455 ft 450 kts 134°
2026-04-22 15:06 53.36409 1.51786 35456 ft 449 kts 134°
2026-04-22 15:06 53.31986 1.59139 35453 ft 448 kts 134°
2026-04-22 15:07 53.27562 1.66469 35455 ft 448 kts 134°
2026-04-22 15:07 53.23124 1.73801 35453 ft 449 kts 134°
2026-04-22 15:08 53.18678 1.81122 35445 ft 449 kts 134°
2026-04-22 15:08 53.14231 1.88422 35448 ft 449 kts 134°
2026-04-22 15:09 53.09776 1.95715 35444 ft 450 kts 134°
2026-04-22 15:09 53.05299 2.03020 35455 ft 453 kts 134°
2026-04-22 15:10 53.00769 2.10390 35450 ft 458 kts 134°
2026-04-22 15:10 52.96191 2.17814 35439 ft 461 kts 134°
2026-04-22 15:11 52.91615 2.25197 35405 ft 459 kts 134°
2026-04-22 15:11 52.87091 2.32479 35510 ft 452 kts 134°
2026-04-22 15:12 52.82577 2.39738 35435 ft 452 kts 134°
2026-04-22 15:12 52.78069 2.46970 35428 ft 451 kts 134°
2026-04-22 15:13 52.73562 2.54170 35423 ft 450 kts 134°
2026-04-22 15:13 52.69056 2.61345 35425 ft 450 kts 134°
2026-04-22 15:14 52.64545 2.68506 35420 ft 451 kts 134°
2026-04-22 15:14 52.59996 2.75709 35428 ft 457 kts 134°
2026-04-22 15:15 52.55404 2.82956 35409 ft 457 kts 134°
2026-04-22 15:15 52.50738 2.89991 35391 ft 452 kts 130°
2026-04-22 15:16 52.48834 2.94064 35423 ft 449 kts 119°
2026-04-22 15:16 52.47390 2.98595 35409 ft 449 kts 110°
2026-04-22 15:16 52.44944 3.08057 35407 ft 451 kts 110°
2026-04-22 15:17 52.42484 3.17488 35400 ft 449 kts 111°
2026-04-22 15:17 52.40002 3.26828 35390 ft 446 kts 111°
2026-04-22 15:18 52.37504 3.36129 35403 ft 447 kts 111°
2026-04-22 15:18 52.34994 3.45429 35398 ft 451 kts 111°
2026-04-22 15:19 52.32438 3.54854 35379 ft 449 kts 111°
2026-04-22 15:19 52.29906 3.64157 35387 ft 447 kts 111°
2026-04-22 15:20 52.27388 3.73378 35395 ft 448 kts 111°
2026-04-22 15:20 52.24841 3.82664 35393 ft 448 kts 111°
2026-04-22 15:21 52.22285 3.91947 35388 ft 449 kts 111°
2026-04-22 15:21 52.19714 4.01249 35381 ft 450 kts 111°
2026-04-22 15:22 52.17121 4.10587 35369 ft 448 kts 111°
2026-04-22 15:22 52.14563 4.19766 35365 ft 448 kts 111°
2026-04-22 15:23 52.11979 4.29002 35359 ft 449 kts 111°
2026-04-22 15:23 52.09384 4.38243 35356 ft 450 kts 111°
2026-04-22 15:24 52.06755 4.47564 35356 ft 451 kts 112°
2026-04-22 15:24 52.04136 4.56816 35355 ft 451 kts 112°
2026-04-22 15:25 52.01521 4.66016 35352 ft 452 kts 112°
2026-04-22 15:25 51.98882 4.75265 35354 ft 451 kts 112°
2026-04-22 15:26 51.96248 4.84454 35350 ft 448 kts 112°
2026-04-22 15:26 51.93619 4.93598 35358 ft 446 kts 112°
2026-04-22 15:27 51.90996 5.02684 35357 ft 445 kts 112°
2026-04-22 15:27 51.88368 5.11752 35355 ft 445 kts 112°
2026-04-22 15:28 51.85737 5.20800 35351 ft 445 kts 112°
2026-04-22 15:28 51.83086 5.29877 35356 ft 446 kts 112°
2026-04-22 15:29 51.80425 5.38958 35355 ft 448 kts 112°
2026-04-22 15:30 51.76856 5.51081 35354 ft 450 kts 112°
2026-04-22 15:30 51.73697 5.61759 35354 ft 452 kts 112°
2026-04-22 15:31 51.70980 5.70903 35349 ft 453 kts 112°
2026-04-22 15:31 51.68254 5.80046 35348 ft 453 kts 113°
2026-04-22 15:32 51.65539 5.89114 35349 ft 452 kts 113°
2026-04-22 15:32 51.62801 5.98224 35345 ft 451 kts 113°
2026-04-22 15:33 51.60063 6.07303 35345 ft 450 kts 113°
2026-04-22 15:33 51.57324 6.16351 35349 ft 449 kts 113°
2026-04-22 15:34 51.54594 6.25372 35348 ft 448 kts 112°
2026-04-22 15:34 51.52134 6.34536 35352 ft 446 kts 109°
2026-04-22 15:35 51.50174 6.42262 35348 ft 446 kts 109°
2026-04-22 15:35 51.47430 6.52962 35348 ft 446 kts 110°
2026-04-22 15:36 51.45031 6.62145 35351 ft 447 kts 110°
2026-04-22 15:36 51.42611 6.71320 35347 ft 447 kts 110°
2026-04-22 15:37 51.40183 6.80478 35352 ft 447 kts 110°
2026-04-22 15:37 51.37749 6.89621 35345 ft 446 kts 110°
2026-04-22 15:38 51.35308 6.98761 35346 ft 446 kts 110°
2026-04-22 15:38 51.31640 7.12424 35342 ft 446 kts 110°
2026-04-22 15:39 51.29187 7.21520 35340 ft 445 kts 110°
2026-04-22 15:39 51.26730 7.30592 35336 ft 445 kts 110°
2026-04-22 15:40 51.24271 7.39637 35323 ft 444 kts 110°
2026-04-22 15:40 51.21806 7.48667 35329 ft 443 kts 111°
2026-04-22 15:41 51.19341 7.57665 35326 ft 443 kts 111°
2026-04-22 15:41 51.16882 7.66604 35327 ft 443 kts 111°
2026-04-22 15:42 51.14400 7.75596 35328 ft 443 kts 111°
2026-04-22 15:42 51.11915 7.84558 35326 ft 443 kts 111°
2026-04-22 15:43 51.09426 7.93506 35325 ft 442 kts 111°
2026-04-22 15:43 51.06929 8.02444 35325 ft 442 kts 111°
2026-04-22 15:44 51.04423 8.11382 35326 ft 442 kts 111°
2026-04-22 15:44 51.01916 8.20291 35328 ft 442 kts 111°
2026-04-22 15:45 50.99402 8.29192 35326 ft 442 kts 111°
2026-04-22 15:45 50.96880 8.38087 35323 ft 442 kts 111°
2026-04-22 15:46 50.94350 8.46974 35331 ft 442 kts 111°
2026-04-22 15:46 50.92244 8.54347 35330 ft 442 kts 111°
2026-04-22 15:47 50.89707 8.63199 35336 ft 442 kts 111°
2026-04-22 15:47 50.87153 8.72080 35337 ft 443 kts 111°
2026-04-22 15:48 50.84589 8.80959 35334 ft 444 kts 111°
2026-04-22 15:48 50.82014 8.89845 35326 ft 444 kts 111°
2026-04-22 15:49 50.79433 8.98718 35329 ft 444 kts 111°
2026-04-22 15:49 50.76845 9.07582 35331 ft 444 kts 111°
2026-04-22 15:50 50.74249 9.16438 35323 ft 444 kts 111°
2026-04-22 15:50 50.71648 9.25281 35329 ft 444 kts 111°
2026-04-22 15:51 50.69045 9.34098 35315 ft 443 kts 111°
2026-04-22 15:51 50.66436 9.42903 35327 ft 443 kts 111°
2026-04-22 15:52 50.63828 9.51672 35326 ft 442 kts 111°
2026-04-22 15:52 50.61217 9.60423 35322 ft 441 kts 112°
2026-04-22 15:53 50.58598 9.69165 35318 ft 441 kts 112°
2026-04-22 15:53 50.55996 9.77821 35323 ft 441 kts 112°
2026-04-22 15:54 50.53371 9.86523 35332 ft 440 kts 112°
2026-04-22 15:54 50.50742 9.95205 35327 ft 440 kts 112°
2026-04-22 15:55 50.48105 10.03882 35321 ft 440 kts 112°
2026-04-22 15:55 50.45466 10.12537 35323 ft 439 kts 112°
2026-04-22 15:56 50.42822 10.21177 35318 ft 439 kts 112°
2026-04-22 15:56 50.40169 10.29815 35323 ft 440 kts 112°
2026-04-22 15:57 50.37510 10.38445 35321 ft 440 kts 112°
2026-04-22 15:57 50.36188 10.42725 35315 ft 440 kts 112°
2026-04-22 15:58 50.33562 10.51197 35318 ft 438 kts 112°
2026-04-22 15:58 50.30900 10.59761 35319 ft 438 kts 112°
2026-04-22 15:59 50.28230 10.68322 35324 ft 439 kts 112°
2026-04-22 15:59 50.25549 10.76886 35311 ft 439 kts 112°
2026-04-22 16:00 50.22843 10.85503 35422 ft 444 kts 113°
2026-04-22 16:00 50.21479 10.89836 35594 ft 445 kts 113°
2026-04-22 16:00 50.20111 10.94170 35832 ft 444 kts 113°
2026-04-22 16:01 50.18746 10.98485 36032 ft 444 kts 113°
2026-04-22 16:01 50.17374 11.02819 36121 ft 447 kts 113°
2026-04-22 16:01 50.15997 11.07162 36331 ft 446 kts 113°
2026-04-22 16:01 50.14620 11.11493 36568 ft 445 kts 113°
2026-04-22 16:02 50.13245 11.15810 36774 ft 445 kts 113°
2026-04-22 16:02 50.11865 11.20139 36906 ft 446 kts 113°
2026-04-22 16:02 50.10482 11.24472 37073 ft 447 kts 113°
2026-04-22 16:02 50.09099 11.28793 37252 ft 446 kts 113°
2026-04-22 16:03 50.06316 11.37471 37298 ft 450 kts 113°
2026-04-22 16:03 50.03522 11.46150 37292 ft 448 kts 113°
2026-04-22 16:04 50.00735 11.54775 37292 ft 445 kts 114°
2026-04-22 16:04 49.97956 11.63348 37288 ft 443 kts 114°
2026-04-22 16:05 49.95176 11.71896 37292 ft 446 kts 114°
2026-04-22 16:05 49.92357 11.80538 37272 ft 451 kts 114°
2026-04-22 16:06 49.89508 11.89241 37270 ft 454 kts 114°
2026-04-22 16:06 49.86632 11.97990 37263 ft 456 kts 114°
2026-04-22 16:07 49.83774 12.06651 37247 ft 451 kts 114°
2026-04-22 16:07 49.80936 12.15225 37256 ft 446 kts 114°
2026-04-22 16:08 49.78108 12.23749 37260 ft 445 kts 114°
2026-04-22 16:08 49.75272 12.32266 37257 ft 445 kts 114°
2026-04-22 16:09 49.72433 12.40766 37267 ft 445 kts 114°
2026-04-22 16:09 49.69871 12.49446 37251 ft 442 kts 103°
2026-04-22 16:10 49.68564 12.58678 37259 ft 441 kts 98°
2026-04-22 16:10 49.67334 12.67963 37260 ft 443 kts 99°
2026-04-22 16:11 49.66013 12.77268 37266 ft 445 kts 102°
2026-04-22 16:11 49.63579 12.86108 37259 ft 454 kts 120°
2026-04-22 16:12 49.59986 12.94147 37269 ft 456 kts 122°
2026-04-22 16:12 49.56325 13.02144 37267 ft 457 kts 122°
2026-04-22 16:13 49.52692 13.10185 37265 ft 458 kts 122°
2026-04-22 16:13 49.49073 13.18243 37269 ft 458 kts 122°
2026-04-22 16:14 49.45479 13.26237 37256 ft 458 kts 122°
2026-04-22 16:14 49.41857 13.34264 37258 ft 457 kts 122°
2026-04-22 16:15 49.38236 13.42263 37263 ft 456 kts 122°
2026-04-22 16:15 49.34613 13.50243 37258 ft 455 kts 122°
2026-04-22 16:16 49.30992 13.58197 37257 ft 455 kts 122°
2026-04-22 16:16 49.27351 13.66123 37253 ft 455 kts 123°
2026-04-22 16:17 49.23624 13.73941 37260 ft 455 kts 123°
2026-04-22 16:17 49.19880 13.81728 37257 ft 455 kts 123°
2026-04-22 16:18 49.16133 13.89535 37256 ft 455 kts 123°
2026-04-22 16:18 49.12386 13.97336 37255 ft 456 kts 123°
2026-04-22 16:19 49.08629 14.05139 37260 ft 457 kts 124°
2026-04-22 16:19 49.04859 14.12946 37250 ft 458 kts 124°
2026-04-22 16:20 49.01077 14.20756 37252 ft 459 kts 124°
2026-04-22 16:20 48.97277 14.28581 37246 ft 459 kts 124°
2026-04-22 16:21 48.93463 14.36377 37241 ft 459 kts 125°
2026-04-22 16:21 48.89572 14.44083 37244 ft 459 kts 125°
2026-04-22 16:22 48.83712 14.55617 37243 ft 460 kts 125°
2026-04-22 16:23 48.77846 14.67167 37239 ft 461 kts 126°
2026-04-22 16:23 48.73929 14.74855 37236 ft 461 kts 126°
2026-04-22 16:24 48.67358 14.85413 37240 ft 464 kts 135°
2026-04-22 16:25 48.62639 14.92081 37238 ft 465 kts 135°
2026-04-22 16:25 48.55590 15.02145 37234 ft 465 kts 135°
2026-04-22 16:26 48.50910 15.08886 37233 ft 465 kts 135°
2026-04-22 16:26 48.46235 15.15614 37230 ft 465 kts 135°
2026-04-22 16:27 48.41548 15.22338 37222 ft 465 kts 135°
2026-04-22 16:27 48.36858 15.29047 37212 ft 465 kts 135°
2026-04-22 16:28 48.32161 15.35745 37222 ft 466 kts 135°
2026-04-22 16:28 48.27457 15.42437 37222 ft 466 kts 135°
2026-04-22 16:29 48.22744 15.49123 37211 ft 466 kts 135°
2026-04-22 16:29 48.18027 15.55797 37224 ft 466 kts 135°
2026-04-22 16:30 48.13298 15.62470 37212 ft 468 kts 135°
2026-04-22 16:30 48.08548 15.69157 37210 ft 470 kts 135°
2026-04-22 16:31 48.03780 15.75848 37211 ft 470 kts 136°
2026-04-22 16:31 47.99005 15.82534 37207 ft 471 kts 136°
2026-04-22 16:32 47.94220 15.89215 37207 ft 471 kts 136°
2026-04-22 16:32 47.89424 15.95893 37201 ft 472 kts 136°
2026-04-22 16:33 47.85443 16.01423 37200 ft 472 kts 136°
2026-04-22 16:33 47.79826 16.09205 37193 ft 471 kts 136°
2026-04-22 16:34 47.75831 16.14725 37194 ft 471 kts 136°
2026-04-22 16:34 47.70247 16.22421 37194 ft 471 kts 136°
2026-04-22 16:35 47.66218 16.27960 37186 ft 471 kts 136°
2026-04-22 16:35 47.61401 16.34565 37187 ft 471 kts 137°
2026-04-22 16:36 47.56582 16.41157 37182 ft 471 kts 137°
2026-04-22 16:36 47.51792 16.47692 37182 ft 471 kts 137°
2026-04-22 16:37 47.46933 16.54306 37177 ft 472 kts 137°
2026-04-22 16:37 47.42156 16.60861 37169 ft 472 kts 134°
2026-04-22 16:38 47.37660 16.67986 37181 ft 472 kts 131°
2026-04-22 16:38 47.33285 16.75212 37175 ft 472 kts 131°
2026-04-22 16:39 47.28885 16.82416 37171 ft 473 kts 132°
2026-04-22 16:39 47.24482 16.89537 37172 ft 474 kts 132°
2026-04-22 16:40 47.20030 16.96689 37169 ft 475 kts 132°
2026-04-22 16:41 47.13325 17.07419 37166 ft 475 kts 133°
2026-04-22 16:41 47.08847 17.14564 37162 ft 476 kts 133°
2026-04-22 16:42 47.04363 17.21702 37160 ft 476 kts 133°
2026-04-22 16:42 46.99871 17.28833 37166 ft 476 kts 133°
2026-04-22 16:43 46.95378 17.35947 37160 ft 476 kts 133°
2026-04-22 16:43 46.90873 17.43061 37165 ft 476 kts 133°
2026-04-22 16:44 46.86367 17.50158 37164 ft 476 kts 133°
2026-04-22 16:44 46.81860 17.57237 37161 ft 476 kts 133°
2026-04-22 16:45 46.77340 17.64318 37154 ft 476 kts 134°
2026-04-22 16:45 46.72823 17.71376 37155 ft 476 kts 134°
2026-04-22 16:46 46.68290 17.78442 37154 ft 478 kts 134°
2026-04-22 16:46 46.63738 17.85515 37155 ft 479 kts 134°
2026-04-22 16:47 46.59174 17.92589 37150 ft 480 kts 134°
2026-04-22 16:47 46.54592 17.99673 37147 ft 481 kts 134°
2026-04-22 16:48 46.49999 18.06755 37146 ft 482 kts 134°
2026-04-22 16:48 46.45400 18.13828 37140 ft 481 kts 134°
2026-04-22 16:49 46.40822 18.20851 37144 ft 479 kts 134°
2026-04-22 16:49 46.36236 18.27866 37155 ft 480 kts 134°
2026-04-22 16:50 46.31636 18.34885 37145 ft 481 kts 135°
2026-04-22 16:50 46.27023 18.41906 37146 ft 481 kts 135°
2026-04-22 16:51 46.22445 18.48856 37144 ft 481 kts 135°
2026-04-22 16:51 46.17800 18.55888 37148 ft 480 kts 135°
2026-04-22 16:52 46.13215 18.62813 37145 ft 481 kts 135°
2026-04-22 16:52 46.08548 18.69841 37153 ft 483 kts 135°
2026-04-22 16:53 46.03925 18.76789 37138 ft 484 kts 135°
2026-04-22 16:53 45.99259 18.83768 37140 ft 483 kts 136°
2026-04-22 16:54 45.94490 18.90555 37139 ft 482 kts 138°
2026-04-22 16:54 45.89676 18.97254 37138 ft 482 kts 138°
2026-04-22 16:55 45.84856 19.03977 37141 ft 484 kts 138°
2026-04-22 16:55 45.80026 19.10735 37140 ft 485 kts 138°
2026-04-22 16:56 45.75199 19.17488 37139 ft 485 kts 138°
2026-04-22 16:56 45.70366 19.24232 37145 ft 485 kts 138°
2026-04-22 16:57 45.65539 19.30949 37135 ft 484 kts 139°
2026-04-22 16:57 45.60707 19.37655 37142 ft 485 kts 139°
2026-04-22 16:58 45.56679 19.43230 37135 ft 486 kts 139°
2026-04-22 16:58 45.50994 19.51081 37135 ft 487 kts 139°
2026-04-22 16:59 45.46125 19.57787 37134 ft 487 kts 139°
2026-04-22 16:59 45.41249 19.64486 37145 ft 487 kts 139°
2026-04-22 17:00 45.36372 19.71167 37139 ft 488 kts 139°
2026-04-22 17:00 45.29029 19.81197 37134 ft 489 kts 140°
2026-04-22 17:01 45.24121 19.87878 37138 ft 489 kts 140°
2026-04-22 17:01 45.19203 19.94558 37133 ft 490 kts 140°
2026-04-22 17:02 45.14285 20.01221 37133 ft 490 kts 140°
2026-04-22 17:02 45.09357 20.07882 37126 ft 489 kts 140°
2026-04-22 17:03 45.04437 20.14515 37130 ft 488 kts 140°
2026-04-22 17:03 44.99515 20.21131 37130 ft 489 kts 140°
2026-04-22 17:04 44.94616 20.27702 37129 ft 489 kts 140°
2026-04-22 17:04 44.89673 20.34315 37127 ft 490 kts 140°
2026-04-22 17:05 44.84727 20.40917 37127 ft 489 kts 140°
2026-04-22 17:05 44.79783 20.47500 37128 ft 489 kts 141°
2026-04-22 17:06 44.74840 20.54063 37121 ft 488 kts 141°
2026-04-22 17:06 44.69891 20.60619 37128 ft 490 kts 141°
2026-04-22 17:07 44.64918 20.67189 37121 ft 492 kts 141°
2026-04-22 17:07 44.59937 20.73757 37103 ft 489 kts 141°
2026-04-22 17:08 44.54998 20.80254 37107 ft 485 kts 141°
2026-04-22 17:08 44.50061 20.86729 37118 ft 487 kts 141°
2026-04-22 17:09 44.45087 20.93234 37112 ft 491 kts 141°
2026-04-22 17:09 44.40132 20.99706 37091 ft 483 kts 141°
2026-04-22 17:10 44.35236 21.06086 37087 ft 479 kts 141°
2026-04-22 17:10 44.32792 21.09262 36781 ft 480 kts 141°
2026-04-22 17:10 44.30367 21.12410 36466 ft 474 kts 141°
2026-04-22 17:11 44.27957 21.15538 36073 ft 470 kts 141°
2026-04-22 17:11 44.25570 21.18630 35685 ft 467 kts 141°
2026-04-22 17:11 44.23192 21.21707 35297 ft 464 kts 142°
2026-04-22 17:11 44.20837 21.24751 34913 ft 461 kts 142°
2026-04-22 17:12 44.18487 21.27784 34517 ft 459 kts 142°
2026-04-22 17:12 44.16141 21.30806 34131 ft 463 kts 142°
2026-04-22 17:12 44.13728 21.33902 33674 ft 481 kts 142°
2026-04-22 17:12 44.11231 21.37100 33250 ft 494 kts 142°
2026-04-22 17:13 44.08693 21.40356 32803 ft 497 kts 142°
2026-04-22 17:13 44.06164 21.43607 32344 ft 492 kts 142°
2026-04-22 17:13 44.03669 21.46816 31919 ft 486 kts 142°
2026-04-22 17:13 44.01202 21.49985 31511 ft 480 kts 142°
2026-04-22 17:14 43.98794 21.53071 31125 ft 475 kts 142°
2026-04-22 17:14 43.96338 21.56210 30732 ft 474 kts 142°
2026-04-22 17:14 43.93942 21.59264 30343 ft 474 kts 142°
2026-04-22 17:14 43.91518 21.62349 29918 ft 473 kts 142°
2026-04-22 17:15 43.90698 21.63393 29754 ft 471 kts 142°
2026-04-22 17:15 43.86716 21.68459 29018 ft 463 kts 142°
2026-04-22 17:15 43.84358 21.71456 28620 ft 458 kts 142°
2026-04-22 17:15 43.82022 21.74419 28208 ft 454 kts 142°
2026-04-22 17:16 43.79700 21.77361 27822 ft 450 kts 142°
2026-04-22 17:16 43.77393 21.80281 27407 ft 447 kts 142°
2026-04-22 17:16 43.75112 21.83164 27019 ft 443 kts 142°
2026-04-22 17:16 43.72845 21.86028 26628 ft 439 kts 143°
2026-04-22 17:17 43.71357 21.87905 26379 ft 437 kts 143°
2026-04-22 17:17 43.68364 21.91677 25849 ft 433 kts 143°
2026-04-22 17:17 43.66142 21.94473 25480 ft 430 kts 143°
2026-04-22 17:17 43.64678 21.96315 25227 ft 429 kts 143°
2026-04-22 17:18 43.61742 22.00003 24722 ft 425 kts 143°
2026-04-22 17:18 43.59562 22.02739 24341 ft 422 kts 143°
2026-04-22 17:18 43.57398 22.05453 23971 ft 419 kts 143°
2026-04-22 17:18 43.55251 22.08142 23601 ft 416 kts 143°
2026-04-22 17:19 43.51708 22.12572 22904 ft 412 kts 143°
2026-04-22 17:19 43.46793 22.18708 22020 ft 405 kts 143°
2026-04-22 17:20 43.43341 22.23007 21426 ft 401 kts 143°
2026-04-22 17:20 43.39229 22.28120 20693 ft 395 kts 142°
2026-04-22 17:21 43.37198 22.30643 20341 ft 392 kts 142°
2026-04-22 17:21 43.33187 22.35618 19607 ft 385 kts 142°
2026-04-22 17:22 43.29248 22.40493 18944 ft 379 kts 142°
2026-04-22 17:22 43.27289 22.42914 18601 ft 378 kts 142°
2026-04-22 17:22 43.23395 22.47721 17850 ft 375 kts 142°
2026-04-22 17:23 43.21460 22.50107 17471 ft 372 kts 142°
2026-04-22 17:23 43.17639 22.54812 16758 ft 366 kts 141°
2026-04-22 17:23 43.15750 22.57134 16420 ft 364 kts 141°
2026-04-22 17:24 43.13869 22.59446 16091 ft 362 kts 141°
2026-04-22 17:24 43.11996 22.61745 15746 ft 361 kts 141°
2026-04-22 17:24 43.10132 22.64030 15401 ft 359 kts 141°
2026-04-22 17:24 43.08278 22.66303 15063 ft 357 kts 141°
2026-04-22 17:25 43.06432 22.68563 14732 ft 355 kts 140°
2026-04-22 17:25 43.04601 22.70804 14398 ft 352 kts 140°
2026-04-22 17:25 43.02778 22.73033 14070 ft 350 kts 140°
2026-04-22 17:25 43.00972 22.75241 13717 ft 348 kts 140°
2026-04-22 17:26 42.99171 22.77438 13356 ft 345 kts 140°
2026-04-22 17:26 42.97387 22.79616 13022 ft 343 kts 139°
2026-04-22 17:26 42.95764 22.81971 12742 ft 340 kts 126°
2026-04-22 17:26 42.94589 22.84753 12555 ft 338 kts 117°
2026-04-22 17:27 42.93550 22.87620 12311 ft 336 kts 116°
2026-04-22 17:27 42.92537 22.90477 11995 ft 333 kts 116°
2026-04-22 17:27 42.91536 22.93312 11638 ft 331 kts 115°
2026-04-22 17:27 42.90544 22.96130 11298 ft 329 kts 116°
2026-04-22 17:28 42.89580 22.98868 10946 ft 327 kts 115°
2026-04-22 17:28 42.88592 23.01664 10603 ft 326 kts 115°
2026-04-22 17:28 42.87622 23.04404 10255 ft 325 kts 115°
2026-04-22 17:28 42.86629 23.07203 9908 ft 323 kts 115°
2026-04-22 17:29 42.85651 23.09950 9531 ft 319 kts 115°
2026-04-22 17:29 42.84691 23.12633 9133 ft 310 kts 115°
2026-04-22 17:29 42.83768 23.15199 8759 ft 302 kts 115°
2026-04-22 17:29 42.82851 23.17730 8383 ft 294 kts 115°
2026-04-22 17:30 42.81951 23.20200 8018 ft 288 kts 115°
2026-04-22 17:30 42.81114 23.22655 7653 ft 285 kts 109°
2026-04-22 17:30 42.80483 23.25210 7391 ft 283 kts 106°
2026-04-22 17:30 42.79890 23.27759 7140 ft 282 kts 105°
2026-04-22 17:31 42.79304 23.30298 6884 ft 280 kts 105°
2026-04-22 17:31 42.78720 23.32820 6630 ft 278 kts 105°
2026-04-22 17:31 42.78137 23.35325 6393 ft 276 kts 105°
2026-04-22 17:31 42.77556 23.37806 6187 ft 274 kts 105°
2026-04-22 17:32 42.76979 23.40271 5977 ft 272 kts 105°
2026-04-22 17:32 42.76408 23.42700 5759 ft 267 kts 105°
2026-04-22 17:32 42.75847 23.45089 5532 ft 264 kts 105°
2026-04-22 17:32 42.75294 23.47455 5300 ft 260 kts 105°
2026-04-22 17:33 42.74934 23.49003 5150 ft 258 kts 105°
2026-04-22 17:33 42.74226 23.52058 4819 ft 247 kts 105°
2026-04-22 17:33 42.73725 23.54230 4627 ft 234 kts 105°
2026-04-22 17:33 42.73253 23.56270 4409 ft 219 kts 106°
2026-04-22 17:34 42.72811 23.58191 4165 ft 208 kts 105°
2026-04-22 17:34 42.72372 23.60004 3924 ft 197 kts 114°
2026-04-22 17:34 42.71529 23.61411 3665 ft 189 kts 147°
2026-04-22 17:34 42.70287 23.61816 3630 ft 190 kts 188°
2026-04-22 17:35 42.69123 23.61008 3582 ft 189 kts 234°
2026-04-22 17:35 42.68760 23.59376 3616 ft 181 kts 273°
2026-04-22 17:35 42.68765 23.57664 3609 ft 182 kts 271°
2026-04-22 17:35 42.68808 23.55948 3553 ft 183 kts 275°
2026-04-22 17:36 42.68905 23.54202 3282 ft 184 kts 275°
2026-04-22 17:36 42.69005 23.52514 2989 ft 174 kts 275°
2026-04-22 17:36 42.69099 23.50931 2758 ft 159 kts 275°
2026-04-22 17:36 42.69188 23.49446 2556 ft 160 kts 275°
2026-04-22 17:37 42.69275 23.47937 2375 ft 159 kts 275°
2026-04-22 17:37 42.69370 23.46462 2177 ft 154 kts 275°
2026-04-22 17:37 42.69451 23.45038 1960 ft 147 kts 276°
2026-04-22 17:37 42.69535 23.43656 1766 ft 146 kts 275°
2026-04-22 17:38 42.69603 23.42506 1751 ft 92 kts 274°
2026-04-22 17:38 42.69634 23.41966 1752 ft 28 kts 274°
2026-04-22 17:38 42.69624 23.41715 1754 ft 26 kts 256°
2026-04-22 17:38 42.69561 23.41495 1745 ft 24 kts 246°
2026-04-22 17:39 42.69496 23.41302 1750 ft 19 kts 250°
2026-04-22 17:39 42.69418 23.41205 1752 ft 16 kts 189°
2026-04-22 17:39 42.69211 23.41159 1747 ft 13 kts 169°
2026-04-22 17:40 42.69142 23.41190 1752 ft 8 kts 147°
2026-04-22 17:40 42.69141 23.41255 1752 ft 6 kts 69°
2026-04-22 17:40 42.69145 23.41270 1752 ft 0 kts 70°